Location: Borovka
(49.7741°N, 14.5280°E)
Time: 02:45:48
(UTC+00:00)

ESTCUBE 1 - Pass Details

Date: 18 March 2026
Orbit: 620 x 631 km, 97.7° (Epoch: 13 April)

Event Time Altitude Azimuth Distance (km) Brightness Sun altitude
Exits shadow 18:04:06 11° 83° (E) 1,940 ? -9.3°
Maximum altitude 18:05:57 14° 57° (ENE) 1,769 ? -9.6°
Drops below altitude 10° 18:08:10 10° 26° (NNE) 2,019 ? -9.9°
Sets 18:11:20 0° 2° (N) 2,934 ? -10.4°
